TimeAST,TemperatureF,Dew PointF,Humidity,Sea Level PressureIn,VisibilityMPH,Wind Direction,Wind SpeedMPH,Gust SpeedMPH,PrecipitationIn,Events,Conditions,WindDirDegrees,DateUTC
12:00 AM,71.6,62.6,73,29.95,-9999.0,Calm,Calm,-,N/A,,Clear,0,2012-12-10 21:00:00
12:30 AM,69.8,62.6,78,29.95,-9999.0,Variable,2.3,-,N/A,,Clear,0,2012-12-10 21:30:00
1:00 AM,69.8,62.6,78,29.95,-9999.0,Variable,2.3,-,N/A,,Clear,0,2012-12-10 22:00:00
1:30 AM,71.6,60.8,69,29.95,-9999.0,SSE,3.5,-,N/A,,Clear,150,2012-12-10 22:30:00
2:00 AM,71.6,62.6,73,29.92,-9999.0,Variable,2.3,-,N/A,,Clear,0,2012-12-10 23:00:00
2:30 AM,69.8,60.8,73,29.92,-9999.0,Variable,2.3,-,N/A,,Clear,0,2012-12-10 23:30:00
3:00 AM,69.8,62.6,78,29.92,-9999.0,Variable,2.3,-,N/A,,Clear,0,2012-12-11 00:00:00
3:30 AM,68.0,62.6,83,29.92,-9999.0,Variable,2.3,-,N/A,,Clear,0,2012-12-11 00:30:00
4:00 AM,69.8,62.6,78,29.92,-9999.0,Variable,2.3,-,N/A,,Clear,0,2012-12-11 01:00:00
4:30 AM,69.8,64.4,83,29.92,-9999.0,SSE,3.5,-,N/A,,Clear,160,2012-12-11 01:30:00
5:00 AM,69.8,64.4,83,29.92,-9999.0,SSE,3.5,-,N/A,,Clear,150,2012-12-11 02:00:00
5:30 AM,71.6,66.2,83,29.95,-9999.0,South,3.5,-,N/A,,Clear,180,2012-12-11 02:30:00
6:00 AM,71.6,66.2,83,29.95,-9999.0,South,3.5,-,N/A,,Clear,190,2012-12-11 03:00:00
6:30 AM,71.6,66.2,83,29.95,3.7,South,3.5,-,N/A,,Unknown,190,2012-12-11 03:30:00
7:00 AM,71.6,66.2,83,29.98,4.3,South,4.6,-,N/A,,Unknown,190,2012-12-11 04:00:00
7:30 AM,73.4,68.0,83,29.98,5.0,South,4.6,-,N/A,,Unknown,180,2012-12-11 04:30:00
8:30 AM,77.0,69.8,78,29.98,-9999.0,South,5.8,-,N/A,,Clear,180,2012-12-11 05:30:00
9:00 AM,79,64,51,30.00,6,SSE,9.2,,,,,160,2012-12-11 06:00:00
9:00 AM,78.8,64.4,61,29.98,-9999.0,SSE,9.2,-,N/A,,Clear,160,2012-12-11 06:00:00
9:30 AM,80.6,60.8,51,29.98,-9999.0,South,5.8,-,N/A,,Clear,180,2012-12-11 06:30:00
10:00 AM,82.4,60.8,48,29.98,-9999.0,South,8.1,-,N/A,,Clear,190,2012-12-11 07:00:00
10:30 AM,84.2,60.8,45,29.98,-9999.0,South,8.1,-,N/A,,Clear,170,2012-12-11 07:30:00
11:00 AM,86.0,57.2,37,29.95,-9999.0,South,10.4,-,N/A,,Clear,190,2012-12-11 08:00:00
11:30 AM,86.0,55.4,35,29.95,-9999.0,South,13.8,-,N/A,,Clear,190,2012-12-11 08:30:00
12:00 PM,86.0,51.8,31,29.92,-9999.0,South,13.8,-,N/A,,Clear,180,2012-12-11 09:00:00
12:30 PM,86.0,51.8,31,29.92,-9999.0,South,10.4,-,N/A,,Clear,170,2012-12-11 09:30:00
1:00 PM,87.8,53.6,31,29.89,-9999.0,South,10.4,-,N/A,,Clear,190,2012-12-11 10:00:00
2:00 PM,86.0,57.2,37,29.89,-9999.0,SSE,13.8,-,N/A,,Clear,150,2012-12-11 11:00:00
2:30 PM,84.2,59.0,42,29.89,-9999.0,SE,13.8,-,N/A,,Clear,130,2012-12-11 11:30:00
3:00 PM,83,60,35,29.89,9,SE,12.7,,,,,140,2012-12-11 12:00:00
3:00 PM,82.4,60.8,48,29.89,-9999.0,SE,12.7,-,N/A,,Clear,140,2012-12-11 12:00:00
3:30 PM,82.4,60.8,48,29.89,-9999.0,SE,11.5,-,N/A,,Clear,140,2012-12-11 12:30:00
4:00 PM,80.6,62.6,54,29.89,-9999.0,SE,10.4,-,N/A,,Clear,140,2012-12-11 13:00:00
4:30 PM,78.8,62.6,57,29.89,-9999.0,SE,9.2,-,N/A,,Clear,140,2012-12-11 13:30:00
5:00 PM,78.8,62.6,57,29.89,-9999.0,SSE,9.2,-,N/A,,Clear,150,2012-12-11 14:00:00
5:30 PM,78.8,62.6,57,29.89,-9999.0,SSE,6.9,-,N/A,,Clear,150,2012-12-11 14:30:00
6:00 PM,78.8,62.6,57,29.89,-9999.0,SSE,5.8,-,N/A,,Clear,160,2012-12-11 15:00:00
7:00 PM,78.8,62.6,57,29.89,-9999.0,SSE,5.8,-,N/A,,Clear,150,2012-12-11 16:00:00
7:30 PM,78.8,62.6,57,29.92,-9999.0,South,3.5,-,N/A,,Clear,190,2012-12-11 16:30:00
8:00 PM,78.8,62.6,57,29.92,-9999.0,South,3.5,-,N/A,,Clear,190,2012-12-11 17:00:00
8:30 PM,77.0,64.4,65,29.92,-9999.0,South,4.6,-,N/A,,Clear,180,2012-12-11 17:30:00
9:00 PM,78,65,56,29.92,6,South,5.8,,,,,190,2012-12-11 18:00:00
9:00 PM,77.0,64.4,65,29.92,-9999.0,South,5.8,-,N/A,,Clear,190,2012-12-11 18:00:00
9:30 PM,77.0,68.0,74,29.92,-9999.0,South,5.8,-,N/A,,Clear,180,2012-12-11 18:30:00
10:00 PM,77.0,66.2,69,29.92,-9999.0,South,5.8,-,N/A,,Clear,180,2012-12-11 19:00:00
10:30 PM,77.0,66.2,69,29.92,-9999.0,South,5.8,-,N/A,,Clear,190,2012-12-11 19:30:00
11:00 PM,77.0,62.6,61,29.95,5.0,West,4.6,-,N/A,,Unknown,270,2012-12-11 20:00:00
11:30 PM,78.8,62.6,57,29.92,3.1,NW,6.9,-,N/A,,Unknown,310,2012-12-11 20:30:00